TimeMST,TemperatureF,Dew PointF,Humidity,Sea Level PressureIn,VisibilityMPH,Wind Direction,Wind SpeedMPH,Gust SpeedMPH,PrecipitationIn,Events,Conditions,WindDirDegrees,DateUTC
12:58 AM,32.7,22.8,67,29.76,10.0,SSW,9.2,-,N/A,,Clear,200,2013-01-10 07:58:00
1:58 AM,33.8,23.4,66,29.74,10.0,SSW,11.5,-,N/A,,Clear,200,2013-01-10 08:58:00
2:58 AM,35.6,22.1,58,29.73,10.0,East,2.3,-,N/A,,Partly Cloudy,100,2013-01-10 09:58:00
3:58 AM,36.0,23.5,61,29.71,10.0,SSE,9.2,-,N/A,,Partly Cloudy,160,2013-01-10 10:58:00
4:58 AM,36.5,24.6,62,29.66,10.0,South,8.1,-,N/A,,Scattered Clouds,180,2013-01-10 11:58:00
5:58 AM,38.1,24.1,57,29.62,10.0,South,15.0,-,N/A,,Clear,180,2013-01-10 12:58:00
6:53 AM,39.2,24.8,56,29.59,10.0,South,12.7,25.3,N/A,,Mostly Cloudy,190,2013-01-10 13:53:00
6:58 AM,38.3,24.3,57,29.59,10.0,South,15.0,25.3,N/A,,Mostly Cloudy,180,2013-01-10 13:58:00
7:23 AM,39.2,23.0,52,29.59,10.0,South,13.8,20.7,N/A,,Scattered Clouds,190,2013-01-10 14:23:00
7:28 AM,39.2,23.0,52,29.59,10.0,South,16.1,20.7,N/A,,Mostly Cloudy,190,2013-01-10 14:28:00
7:58 AM,38.3,24.3,57,29.59,10.0,SSE,15.0,-,N/A,,Mostly Cloudy,160,2013-01-10 14:58:00
8:55 AM,39.2,24.8,56,29.59,10.0,South,12.7,-,N/A,,Overcast,180,2013-01-10 15:55:00
9:55 AM,41.0,24.8,53,29.57,10.0,SSW,12.7,-,N/A,,Overcast,200,2013-01-10 16:55:00
10:55 AM,39.2,26.6,61,29.58,10.0,Variable,5.8,-,N/A,,Overcast,0,2013-01-10 17:55:00
1:55 PM,34.3,27.1,75,29.53,10.0,WSW,13.8,-,N/A,,Mostly Cloudy,240,2013-01-10 20:55:00
2:42 PM,32.0,26.6,80,29.56,2.0,SE,4.6,-,N/A,Snow,Light Snow,130,2013-01-10 21:42:00
2:55 PM,30.9,26.2,83,29.56,1.0,SSE,5.8,-,0.00,Snow,Light Snow,160,2013-01-10 21:55:00
3:08 PM,32.0,26.6,80,29.56,0.5,NW,5.8,-,N/A,Snow,Snow,320,2013-01-10 22:08:00
3:14 PM,32.0,28.4,87,29.55,0.5,NNW,5.8,-,N/A,Fog-Snow,Light Freezing Fog,330,2013-01-10 22:14:00
3:29 PM,30.2,28.4,93,29.56,0.5,WNW,13.8,-,N/A,Snow,Snow,300,2013-01-10 22:29:00
3:58 PM,28.4,26.6,93,29.57,0.5,North,12.7,-,0.02,Snow,Snow,360,2013-01-10 22:58:00
4:08 PM,26.6,24.8,93,29.56,0.5,NNW,11.5,-,N/A,Snow,Snow,340,2013-01-10 23:08:00
4:14 PM,26.6,24.8,93,29.56,0.2,NNW,18.4,-,N/A,Snow,Heavy Snow,330,2013-01-10 23:14:00
4:19 PM,26.6,24.8,93,29.56,0.2,NNW,18.4,-,N/A,Snow,Heavy Snow,330,2013-01-10 23:19:00
4:34 PM,26.6,24.8,93,29.56,0.2,NNW,17.3,-,N/A,Snow,Heavy Snow,330,2013-01-10 23:34:00
4:58 PM,25.5,24.1,94,29.60,0.2,NNW,17.3,-,0.06,Snow,Heavy Snow,330,2013-01-10 23:58:00
5:07 PM,24.8,23.0,93,29.57,0.2,NNW,19.6,-,N/A,Snow,Heavy Snow,330,2013-01-11 00:07:00
5:18 PM,24.8,23.0,93,29.56,0.2,NNW,15.0,-,N/A,Snow,Heavy Snow,340,2013-01-11 00:18:00
5:23 PM,24.8,23.0,93,29.58,0.2,NNW,15.0,-,N/A,Snow,Heavy Snow,340,2013-01-11 00:23:00
5:28 PM,24.8,23.0,93,29.58,0.5,NNW,13.8,-,N/A,Snow,Snow,340,2013-01-11 00:28:00
5:43 PM,24.8,23.0,93,29.58,0.8,NNW,16.1,-,N/A,Snow,Light Snow,340,2013-01-11 00:43:00
5:48 PM,24.8,23.0,93,29.58,1.0,NNW,12.7,-,N/A,Snow,Light Snow,340,2013-01-11 00:48:00
5:58 PM,23.9,22.5,94,29.59,1.0,NNW,13.8,-,0.03,Snow,Light Snow,340,2013-01-11 00:58:00
6:03 PM,23.0,23.0,100,29.58,1.2,North,13.8,-,N/A,Snow,Light Snow,350,2013-01-11 01:03:00
6:08 PM,23.0,23.0,100,29.59,1.5,North,15.0,-,N/A,Snow,Light Snow,350,2013-01-11 01:08:00
6:18 PM,23.0,21.2,93,29.57,1.5,North,13.8,-,N/A,Snow,Light Snow,350,2013-01-11 01:18:00
6:28 PM,23.0,21.2,93,29.58,1.8,NNW,12.7,-,N/A,Snow,Light Snow,340,2013-01-11 01:28:00
6:43 PM,23.0,21.2,93,29.58,1.8,NNW,9.2,-,N/A,Snow,Light Snow,340,2013-01-11 01:43:00
6:48 PM,23.0,21.2,93,29.58,2.0,NNW,6.9,-,N/A,Snow,Light Snow,340,2013-01-11 01:48:00
6:58 PM,23.0,21.2,93,29.60,1.5,NNW,13.8,-,0.02,Snow,Light Snow,330,2013-01-11 01:58:00
7:03 PM,23.0,21.2,93,29.58,1.2,NNW,12.7,-,N/A,Snow,Light Snow,330,2013-01-11 02:03:00
7:13 PM,23.0,21.2,93,29.60,1.5,NW,11.5,-,N/A,Snow,Light Snow,320,2013-01-11 02:13:00
7:38 PM,21.2,19.4,93,29.59,1.5,NNW,13.8,-,N/A,Snow,Light Snow,340,2013-01-11 02:38:00
7:58 PM,21.9,19.9,92,29.61,1.5,NNW,15.0,-,0.01,Snow,Light Snow,340,2013-01-11 02:58:00
8:13 PM,21.2,19.4,93,29.59,1.2,NW,11.5,-,N/A,Snow,Light Snow,320,2013-01-11 03:13:00
8:18 PM,21.2,19.4,93,29.59,1.5,NW,12.7,-,N/A,Snow,Light Snow,320,2013-01-11 03:18:00
8:28 PM,21.2,19.4,93,29.60,1.8,NW,10.4,-,N/A,Snow,Light Snow,320,2013-01-11 03:28:00
8:33 PM,21.2,19.4,93,29.60,2.0,NW,11.5,-,N/A,Snow,Light Snow,320,2013-01-11 03:33:00
8:48 PM,21.2,19.4,93,29.59,1.8,NW,11.5,-,N/A,Snow,Light Snow,310,2013-01-11 03:48:00
8:53 PM,21.2,19.4,93,29.59,1.8,NW,11.5,-,N/A,Snow,Light Snow,310,2013-01-11 03:53:00
8:58 PM,21.6,19.6,92,29.60,1.5,NW,10.4,-,0.00,Snow,Light Snow,310,2013-01-11 03:58:00
9:28 PM,21.2,19.4,93,29.61,2.0,NNW,12.7,-,N/A,Snow,Light Snow,340,2013-01-11 04:28:00
9:33 PM,21.2,19.4,93,29.61,2.5,NNW,10.4,-,N/A,Snow,Light Snow,340,2013-01-11 04:33:00
9:38 PM,21.2,19.4,93,29.62,3.0,NNW,10.4,-,N/A,Snow,Light Snow,340,2013-01-11 04:38:00
9:43 PM,21.2,19.4,93,29.61,2.5,NNW,10.4,-,N/A,Snow,Light Snow,340,2013-01-11 04:43:00
9:48 PM,21.2,19.4,93,29.60,2.5,NNW,12.7,-,N/A,Snow,Light Snow,340,2013-01-11 04:48:00
9:58 PM,21.0,18.9,91,29.60,2.0,NNW,11.5,-,0.00,Snow,Light Snow,340,2013-01-11 04:58:00
10:33 PM,21.2,19.4,93,29.61,2.0,NNW,9.2,-,N/A,Snow,Light Snow,330,2013-01-11 05:33:00
10:55 PM,21.2,19.4,93,29.61,2.5,NNW,10.4,-,N/A,Snow,Light Snow,330,2013-01-11 05:55:00
11:07 PM,21.2,19.4,93,29.61,1.8,NNW,8.1,-,N/A,Snow,Light Snow,330,2013-01-11 06:07:00
11:11 PM,21.2,19.4,93,29.61,1.5,NNW,8.1,-,N/A,Snow,Light Snow,330,2013-01-11 06:11:00
11:22 PM,21.2,17.6,86,29.61,1.8,NNW,9.2,-,N/A,Snow,Light Snow,330,2013-01-11 06:22:00
11:27 PM,21.2,19.4,93,29.61,1.8,NNW,9.2,-,N/A,Snow,Light Snow,340,2013-01-11 06:27:00
11:30 PM,21.2,19.4,93,29.61,2.0,NNW,9.2,-,N/A,Snow,Light Snow,330,2013-01-11 06:30:00
11:33 PM,21.2,19.4,93,29.61,1.8,NNW,10.4,-,N/A,Snow,Light Snow,340,2013-01-11 06:33:00
11:41 PM,21.2,17.6,86,29.61,1.5,NNW,11.5,-,N/A,Snow,Light Snow,340,2013-01-11 06:41:00
11:48 PM,19.4,17.6,93,29.61,1.8,NNW,11.5,-,N/A,Snow,Light Snow,330,2013-01-11 06:48:00
11:55 PM,19.4,17.6,93,29.61,1.8,NNW,12.7,-,N/A,Snow,Light Snow,330,2013-01-11 06:55:00